User: anonymous   Login
Location: Unspecified
(0.0000°N, 0.0000°E)
Time: 17:27:12
(UTC+00:00)
Language:

DX 1 - Orbit

View from above orbital plane
View from above orbital plane
View from above satellite
View from above satellite

Ground track
Ground track

The orbit data is extracted from the following two-line orbital elements,

1 40071U 14037C   18116.40150488  .00000201  00000-0  33312-4 0  9993
2 40071  98.3667 245.4774 0009662 122.7703 237.4446 14.81147487205339
Epoch (UTC): 26 April 2018 09:38:10
Eccentricity: 0.0009662
inclination: 98.3667°
perigee height: 619 km
apogee height: 632 km
right ascension of ascending node: 245.4774°
argument of perigee: 122.7703°
revolutions per day: 14.81147487
mean anomaly at epoch: 237.4446°
orbit number at epoch: 20533

The dashed part of the orbit path shows where the satellite is in the earth's shadow,  

DLR